EXS53G LPFR-EGGW

Flight info

Callsign EXS53G
Flight time N/A
Altitude 36000
Route ELVAR DCT BARDI DCT ZMR DCT NUBLO DCT RONSI DCT DELOG DCT FUJTI DCT IDNUN DCT ATGEB DCT DIKRO DCT ELDOP DCT LUGIS UM185 TELTU
Aircraft A21N/M-SDE2E3FGHIRWXY/LB1

Departure

Time 2026-05-08 09:15
Airport Faro - Gago Coutinho International Airport (LPFR)

Arrival

Time N/A
Airport London Luton Airport (EGGW)
Time Latitude Longitude Altitude Speed Heading
2026-05-08 09:00 37.01899 -7.96694 20 ft 0 kts
2026-05-08 09:08 37.01896 -7.96695 20 ft 3 kts
2026-05-08 09:08 37.01870 -7.96700 20 ft 4 kts
2026-05-08 09:09 37.01847 -7.96705 20 ft 2 kts
2026-05-08 09:09 37.01824 -7.96711 20 ft 4 kts 50°
2026-05-08 09:09 37.01815 -7.96736 22 ft 3 kts 99°
2026-05-08 09:09 37.01818 -7.96758 20 ft 0 kts 99°
2026-05-08 09:12 37.01815 -7.96727 23 ft 8 kts 98°
2026-05-08 09:12 37.01802 -7.96625 20 ft 15 kts 99°
2026-05-08 09:12 37.01743 -7.96518 20 ft 17 kts 176°
2026-05-08 09:13 37.01619 -7.96506 24 ft 19 kts 138°
2026-05-08 09:13 37.01595 -7.96357 20 ft 19 kts 101°
2026-05-08 09:13 37.01567 -7.96175 20 ft 23 kts 99°
2026-05-08 09:13 37.01541 -7.95988 24 ft 23 kts 101°
2026-05-08 09:14 37.01506 -7.95858 21 ft 13 kts 137°
2026-05-08 09:14 37.01406 -7.95846 22 ft 17 kts 187°
2026-05-08 09:14 37.01350 -7.95917 22 ft 11 kts 270°
2026-05-08 09:14 37.01356 -7.95964 21 ft 0 kts 280°
2026-05-08 09:15 37.01360 -7.95997 21 ft 22 kts 278°
2026-05-08 09:15 37.01445 -7.96571 21 ft 116 kts 280°
2026-05-08 09:15 37.01622 -7.97908 321 ft 171 kts 277°
2026-05-08 09:15 37.01752 -7.99350 1697 ft 169 kts 276°
2026-05-08 09:16 37.02150 -8.00767 2776 ft 178 kts 302°
2026-05-08 09:16 37.03122 -8.01781 3648 ft 195 kts 336°
2026-05-08 09:16 37.04533 -8.02000 4421 ft 220 kts 11°
2026-05-08 09:16 37.06081 -8.01415 5226 ft 245 kts 19°
2026-05-08 09:17 37.07771 -8.00729 6085 ft 267 kts 18°
2026-05-08 09:17 37.09629 -8.00029 7000 ft 286 kts 16°
2026-05-08 09:17 37.11567 -7.99334 8183 ft 293 kts 15°
2026-05-08 09:17 37.13557 -7.98633 9383 ft 301 kts 15°
2026-05-08 09:18 37.15605 -7.97916 10430 ft 312 kts 15°
2026-05-08 09:18 37.17779 -7.97146 11032 ft 337 kts 14°
2026-05-08 09:18 37.20122 -7.96318 11601 ft 360 kts 14°
2026-05-08 09:18 37.22546 -7.95459 12465 ft 370 kts 13°
2026-05-08 09:19 37.25036 -7.94568 13479 ft 375 kts 13°
2026-05-08 09:19 37.27569 -7.93664 14457 ft 382 kts 13°
2026-05-08 09:19 37.30153 -7.92751 15354 ft 389 kts 12°
2026-05-08 09:19 37.32777 -7.91819 16249 ft 395 kts 12°
2026-05-08 09:20 37.35435 -7.90867 17100 ft 401 kts 12°
2026-05-08 09:20 37.38134 -7.89903 17935 ft 406 kts 11°
2026-05-08 09:20 37.40874 -7.88933 18718 ft 412 kts 12°
2026-05-08 09:20 37.43650 -7.87937 19537 ft 418 kts 11°
2026-05-08 09:21 37.45050 -7.87436 19999 ft 418 kts 11°
2026-05-08 09:21 37.47833 -7.86438 20710 ft 425 kts 11°
2026-05-08 09:22 37.65203 -7.79015 24838 ft 456 kts 18°
2026-05-08 09:23 37.68147 -7.77472 25404 ft 461 kts 17°
2026-05-08 09:23 37.71086 -7.75962 25936 ft 464 kts 17°
2026-05-08 09:23 37.74133 -7.74395 26389 ft 469 kts 17°
2026-05-08 09:23 37.77117 -7.72853 26903 ft 473 kts 17°
2026-05-08 09:24 37.80176 -7.71262 27418 ft 477 kts 16°
2026-05-08 09:24 37.82545 -7.70032 27781 ft 480 kts 17°
2026-05-08 09:24 37.85648 -7.68424 28184 ft 484 kts 17°
2026-05-08 09:24 37.88769 -7.66803 28577 ft 487 kts 17°
2026-05-08 09:25 37.91925 -7.65161 28994 ft 490 kts 17°
2026-05-08 09:25 37.95088 -7.63518 29359 ft 495 kts 17°
2026-05-08 09:25 37.98287 -7.61851 29792 ft 498 kts 17°
2026-05-08 09:25 38.01504 -7.60176 30181 ft 501 kts 17°
2026-05-08 09:26 38.04688 -7.58517 30595 ft 503 kts 17°
2026-05-08 09:26 38.07944 -7.56829 31011 ft 508 kts 17°
2026-05-08 09:26 38.11221 -7.55119 31465 ft 508 kts 17°
2026-05-08 09:26 38.14487 -7.53416 31987 ft 508 kts 17°
2026-05-08 09:27 38.17752 -7.51701 32527 ft 507 kts 17°
2026-05-08 09:27 38.21014 -7.49986 32985 ft 507 kts 17°
2026-05-08 09:27 38.24270 -7.48274 33456 ft 505 kts 17°
2026-05-08 09:27 38.27514 -7.46571 33883 ft 506 kts 17°
2026-05-08 09:28 38.30767 -7.44859 34320 ft 505 kts 17°
2026-05-08 09:28 38.33970 -7.43165 34757 ft 504 kts 17°
2026-05-08 09:28 38.37204 -7.41465 35189 ft 503 kts 17°
2026-05-08 09:28 38.40438 -7.39765 35649 ft 503 kts 18°
2026-05-08 09:29 38.43667 -7.38059 35893 ft 501 kts 18°
2026-05-08 09:29 38.50095 -7.34660 35933 ft 501 kts 18°
2026-05-08 09:30 38.56516 -7.31263 35933 ft 498 kts 18°
2026-05-08 09:30 38.62889 -7.27873 35939 ft 498 kts 18°
2026-05-08 09:31 38.69205 -7.24526 35933 ft 497 kts 18°
2026-05-08 09:31 38.75615 -7.21111 35956 ft 501 kts 18°
2026-05-08 09:32 38.82067 -7.17657 35980 ft 505 kts 18°
2026-05-08 09:32 38.88535 -7.14201 35931 ft 497 kts 19°
2026-05-08 09:33 38.94868 -7.10799 35934 ft 498 kts 19°
2026-05-08 09:33 39.01254 -7.07368 35935 ft 497 kts 19°
2026-05-08 09:34 39.07633 -7.03938 35935 ft 497 kts 19°
2026-05-08 09:34 39.14006 -7.00510 35930 ft 497 kts 19°
2026-05-08 09:35 39.20355 -6.97087 35952 ft 499 kts 19°
2026-05-08 09:35 39.26774 -6.93612 35975 ft 502 kts 20°
2026-05-08 09:36 39.33207 -6.90095 35983 ft 502 kts 20°
2026-05-08 09:36 39.39655 -6.86603 35986 ft 503 kts 20°
2026-05-08 09:37 39.45996 -6.83160 35930 ft 493 kts 20°
2026-05-08 09:37 39.52334 -6.79692 35931 ft 495 kts 20°
2026-05-08 09:38 39.58676 -6.76221 35934 ft 494 kts 20°
2026-05-08 09:38 39.65014 -6.72755 35931 ft 495 kts 20°
2026-05-08 09:39 39.71315 -6.69291 35936 ft 494 kts 20°
2026-05-08 09:39 39.77632 -6.65813 35926 ft 492 kts 21°
2026-05-08 09:40 39.83947 -6.62326 35931 ft 492 kts 21°
2026-05-08 09:40 39.90248 -6.58842 35904 ft 492 kts 21°
2026-05-08 09:41 39.96520 -6.55395 35912 ft 492 kts 21°
2026-05-08 09:41 40.02832 -6.51883 35919 ft 493 kts 21°
2026-05-08 09:42 40.09158 -6.48379 35924 ft 492 kts 22°
2026-05-08 09:42 40.15391 -6.44913 35907 ft 492 kts 22°
2026-05-08 09:43 40.21686 -6.41391 35913 ft 491 kts 22°
2026-05-08 09:43 40.27966 -6.37881 35915 ft 492 kts 22°
2026-05-08 09:44 40.34195 -6.34392 35926 ft 490 kts 22°
2026-05-08 09:44 40.40472 -6.30864 35933 ft 491 kts 22°
2026-05-08 09:45 40.46747 -6.27329 35927 ft 491 kts 22°
2026-05-08 09:45 40.53025 -6.23797 35930 ft 491 kts 22°
2026-05-08 09:46 40.59217 -6.20312 35939 ft 492 kts 23°
2026-05-08 09:46 40.65459 -6.16769 35941 ft 493 kts 23°
2026-05-08 09:47 40.71741 -6.13213 35928 ft 491 kts 23°
2026-05-08 09:47 40.77935 -6.09491 35904 ft 488 kts 32°
2026-05-08 09:48 40.84099 -6.05746 35922 ft 489 kts 22°
2026-05-08 09:48 40.90385 -6.02456 35933 ft 489 kts 23°
2026-05-08 09:49 40.96650 -5.98968 35934 ft 489 kts 24°
2026-05-08 09:49 41.02908 -5.95413 35934 ft 488 kts 24°
2026-05-08 09:50 41.09160 -5.91833 35941 ft 490 kts 25°
2026-05-08 09:50 41.15440 -5.88219 35950 ft 492 kts 25°
2026-05-08 09:51 41.21686 -5.84627 35959 ft 492 kts 25°
2026-05-08 09:51 41.27959 -5.80996 35958 ft 491 kts 25°
2026-05-08 09:52 41.34234 -5.77368 35962 ft 491 kts 25°
2026-05-08 09:52 41.40488 -5.73758 35953 ft 490 kts 25°
2026-05-08 09:53 41.46691 -5.70151 35947 ft 489 kts 26°
2026-05-08 09:53 41.52914 -5.66516 35940 ft 487 kts 26°
2026-05-08 09:54 41.59123 -5.62884 35932 ft 487 kts 26°
2026-05-08 09:54 41.65334 -5.59258 35934 ft 487 kts 26°
2026-05-08 09:55 41.71531 -5.55620 35930 ft 486 kts 26°
2026-05-08 09:55 41.77698 -5.51995 35944 ft 488 kts 26°
2026-05-08 09:56 41.83910 -5.48346 35939 ft 487 kts 26°
2026-05-08 09:56 41.90105 -5.44690 35930 ft 487 kts 26°
2026-05-08 09:57 41.99421 -5.39162 35949 ft 488 kts 26°
2026-05-08 09:57 42.05595 -5.35527 35950 ft 487 kts 26°
2026-05-08 09:58 42.11787 -5.31841 35947 ft 486 kts 26°
2026-05-08 09:58 42.17980 -5.28148 35947 ft 486 kts 26°
2026-05-08 09:59 42.24151 -5.24449 35936 ft 485 kts 26°
2026-05-08 09:59 42.30279 -5.20782 35935 ft 484 kts 26°
2026-05-08 10:00 42.36427 -5.17094 35924 ft 484 kts 26°
2026-05-08 10:00 42.42591 -5.13395 35929 ft 485 kts 26°
2026-05-08 10:01 42.48653 -5.09757 35927 ft 483 kts 26°
2026-05-08 10:01 42.54750 -5.06076 35928 ft 484 kts 26°
2026-05-08 10:02 42.60892 -5.02365 35915 ft 483 kts 26°
2026-05-08 10:02 42.67030 -4.98631 35920 ft 482 kts 26°
2026-05-08 10:03 42.73192 -4.95009 35909 ft 482 kts 24°
2026-05-08 10:03 42.79337 -4.91455 35903 ft 482 kts 25°
2026-05-08 10:04 42.85506 -4.87833 35918 ft 484 kts 25°
2026-05-08 10:04 42.91693 -4.84181 35924 ft 485 kts 25°
2026-05-08 10:05 42.97906 -4.80509 35933 ft 488 kts 25°
2026-05-08 10:05 43.04117 -4.76821 35939 ft 486 kts 25°
2026-05-08 10:06 43.10288 -4.73158 35918 ft 487 kts 25°
2026-05-08 10:06 43.16486 -4.69484 35913 ft 485 kts 25°
2026-05-08 10:07 43.22657 -4.65803 35903 ft 483 kts 25°
2026-05-08 10:07 43.28818 -4.62122 35895 ft 483 kts 24°
2026-05-08 10:08 43.34962 -4.58455 35884 ft 482 kts 24°
2026-05-08 10:08 43.41054 -4.54807 35861 ft 481 kts 24°
2026-05-08 10:09 43.47183 -4.51115 35881 ft 481 kts 24°
2026-05-08 10:09 43.53315 -4.47422 35876 ft 480 kts 24°
2026-05-08 10:10 43.59426 -4.43740 35849 ft 478 kts 24°
2026-05-08 10:10 43.65487 -4.40078 35852 ft 478 kts 24°
2026-05-08 10:11 43.71589 -4.36387 35858 ft 478 kts 24°
2026-05-08 10:11 43.77681 -4.32679 35863 ft 478 kts 24°
2026-05-08 10:12 43.83757 -4.28968 35869 ft 478 kts 24°
2026-05-08 10:12 43.89808 -4.25277 35862 ft 479 kts 23°
2026-05-08 10:13 43.95911 -4.21553 35874 ft 479 kts 24°
2026-05-08 10:13 44.02001 -4.17831 35863 ft 478 kts 24°
2026-05-08 10:14 44.08090 -4.14090 35906 ft 480 kts 23°
2026-05-08 10:14 44.11113 -4.12233 36229 ft 481 kts 24°
2026-05-08 10:14 44.14211 -4.10311 36628 ft 480 kts 24°
2026-05-08 10:15 44.17229 -4.08446 36937 ft 481 kts 24°
2026-05-08 10:15 44.20274 -4.06555 37385 ft 478 kts 24°
2026-05-08 10:15 44.23306 -4.04669 37767 ft 476 kts 24°
2026-05-08 10:15 44.26315 -4.02811 37881 ft 472 kts 23°
2026-05-08 10:16 44.32225 -3.99170 37876 ft 470 kts 24°
2026-05-08 10:16 44.38219 -3.95683 37878 ft 469 kts 20°
2026-05-08 10:17 44.44309 -3.92408 37881 ft 469 kts 20°
2026-05-08 10:17 44.50386 -3.89057 37873 ft 468 kts 20°
2026-05-08 10:18 44.56452 -3.85693 37884 ft 468 kts 21°
2026-05-08 10:18 44.62468 -3.82340 37889 ft 468 kts 20°
2026-05-08 10:19 44.68514 -3.78974 37891 ft 468 kts 20°
2026-05-08 10:20 44.77579 -3.73892 37894 ft 467 kts 20°
2026-05-08 10:20 44.83618 -3.70491 37903 ft 467 kts 20°
2026-05-08 10:21 44.89649 -3.67103 37910 ft 467 kts 20°
2026-05-08 10:21 44.95626 -3.63737 37906 ft 465 kts 20°
2026-05-08 10:22 45.01613 -3.60351 37903 ft 464 kts 20°
2026-05-08 10:22 45.07607 -3.56956 37910 ft 464 kts 20°
2026-05-08 10:23 45.13600 -3.53546 37910 ft 463 kts 19°
2026-05-08 10:23 45.19566 -3.50151 37911 ft 462 kts 20°
2026-05-08 10:24 45.25506 -3.46768 37893 ft 458 kts 20°
2026-05-08 10:24 45.31371 -3.43415 37886 ft 457 kts 19°
2026-05-08 10:25 45.37269 -3.40045 37891 ft 457 kts 20°
2026-05-08 10:25 45.43150 -3.36640 37888 ft 456 kts 19°
2026-05-08 10:26 45.49063 -3.33320 37898 ft 456 kts 15°
2026-05-08 10:26 45.55099 -3.30507 37902 ft 455 kts 15°
2026-05-08 10:27 45.61070 -3.27699 37906 ft 455 kts 16°
2026-05-08 10:27 45.67107 -3.24849 37935 ft 458 kts 15°
2026-05-08 10:28 45.73137 -3.22007 37927 ft 456 kts 15°
2026-05-08 10:28 45.79172 -3.19171 37940 ft 457 kts 15°
2026-05-08 10:29 45.85168 -3.16328 37948 ft 457 kts 15°
2026-05-08 10:29 45.91212 -3.13459 37953 ft 459 kts 15°
2026-05-08 10:30 45.97272 -3.10574 37960 ft 459 kts 15°
2026-05-08 10:30 46.03324 -3.07684 37967 ft 458 kts 15°
2026-05-08 10:31 46.09360 -3.04793 37984 ft 457 kts 15°
2026-05-08 10:31 46.15238 -3.01971 37961 ft 455 kts 15°
2026-05-08 10:32 46.21231 -2.99095 37967 ft 453 kts 15°
2026-05-08 10:32 46.27210 -2.96207 37966 ft 454 kts 15°
2026-05-08 10:33 46.33200 -2.93327 37963 ft 453 kts 15°
2026-05-08 10:33 46.39133 -2.90493 37959 ft 453 kts 15°
2026-05-08 10:34 46.45100 -2.87595 37965 ft 453 kts 15°
2026-05-08 10:34 46.51070 -2.84675 37957 ft 452 kts 15°
2026-05-08 10:35 46.57031 -2.81783 37974 ft 453 kts 15°
2026-05-08 10:35 46.62980 -2.78861 37956 ft 451 kts 15°
2026-05-08 10:36 46.68880 -2.75981 37950 ft 450 kts 14°
2026-05-08 10:36 46.74809 -2.73072 37946 ft 450 kts 15°
2026-05-08 10:37 46.80745 -2.70169 37949 ft 450 kts 15°
2026-05-08 10:37 46.86686 -2.67237 37968 ft 451 kts 15°
2026-05-08 10:38 46.92618 -2.64308 37961 ft 450 kts 14°
2026-05-08 10:38 46.98491 -2.61385 37940 ft 447 kts 15°
2026-05-08 10:39 47.04406 -2.58465 37945 ft 449 kts 15°
2026-05-08 10:39 47.10301 -2.55528 37945 ft 447 kts 15°
2026-05-08 10:40 47.16164 -2.52414 37951 ft 449 kts 17°
2026-05-08 10:40 47.21967 -2.49140 37948 ft 450 kts 17°
2026-05-08 10:41 47.27835 -2.45846 37979 ft 452 kts 17°
2026-05-08 10:41 47.33691 -2.42604 37965 ft 450 kts 16°
2026-05-08 10:42 47.39563 -2.39349 37983 ft 451 kts 16°
2026-05-08 10:42 47.45391 -2.36107 37982 ft 451 kts 16°
2026-05-08 10:43 47.51254 -2.32820 37984 ft 451 kts 16°
2026-05-08 10:43 47.57123 -2.29527 37989 ft 451 kts 16°
2026-05-08 10:44 47.62990 -2.26232 37992 ft 451 kts 16°
2026-05-08 10:44 47.68855 -2.22942 37982 ft 450 kts 16°
2026-05-08 10:45 47.74673 -2.19664 37986 ft 450 kts 16°
2026-05-08 10:45 47.80521 -2.16338 37981 ft 449 kts 16°
2026-05-08 10:46 47.86350 -2.13024 37983 ft 448 kts 16°
2026-05-08 10:46 47.91948 -2.09838 37984 ft 445 kts 16°
2026-05-08 10:47 47.97698 -2.06565 37977 ft 445 kts 16°
2026-05-08 10:47 48.03469 -2.03275 37977 ft 445 kts 15°
2026-05-08 10:48 48.09240 -1.99971 37964 ft 443 kts 16°
2026-05-08 10:48 48.14998 -1.96655 37965 ft 445 kts 16°
2026-05-08 10:49 48.20775 -1.93330 37984 ft 445 kts 16°
2026-05-08 10:49 48.26535 -1.90027 37982 ft 447 kts 16°
2026-05-08 10:50 48.32337 -1.86672 37985 ft 447 kts 16°
2026-05-08 10:50 48.38146 -1.83326 37988 ft 446 kts 16°
2026-05-08 10:51 48.43940 -1.79943 37983 ft 446 kts 17°
2026-05-08 10:51 48.49697 -1.76570 37993 ft 447 kts 17°
2026-05-08 10:52 48.55518 -1.73177 38017 ft 450 kts 17°
2026-05-08 10:52 48.61352 -1.69769 38017 ft 448 kts 16°
2026-05-08 10:53 48.67165 -1.66361 38009 ft 448 kts 16°
2026-05-08 10:53 48.72928 -1.62969 38000 ft 448 kts 17°
2026-05-08 10:54 48.78713 -1.59512 38006 ft 447 kts 17°
2026-05-08 10:54 48.84499 -1.56046 38011 ft 448 kts 18°
2026-05-08 10:55 48.90284 -1.52573 38015 ft 446 kts 17°
2026-05-08 10:55 48.96045 -1.49113 38014 ft 445 kts 17°
2026-05-08 10:56 49.01744 -1.45688 37994 ft 442 kts 17°
2026-05-08 10:56 49.07457 -1.42232 38001 ft 442 kts 18°
2026-05-08 10:57 49.13174 -1.38772 38005 ft 442 kts 17°
2026-05-08 10:57 49.21765 -1.33595 38025 ft 443 kts 18°
2026-05-08 10:58 49.26525 -1.30683 38026 ft 442 kts 18°
2026-05-08 10:58 49.32255 -1.27202 38033 ft 445 kts 18°
2026-05-08 10:59 49.39049 -1.23844 38036 ft 441 kts 12°
2026-05-08 10:59 49.44963 -1.21279 38037 ft 441 kts 12°
2026-05-08 11:00 49.49877 -1.19163 38047 ft 442 kts 12°
2026-05-08 11:00 49.55818 -1.16575 38057 ft 444 kts 12°
2026-05-08 11:01 49.61774 -1.13973 38063 ft 446 kts 12°
2026-05-08 11:01 49.67548 -1.11440 38067 ft 446 kts 12°
2026-05-08 11:02 49.76473 -1.07498 38077 ft 448 kts 12°
2026-05-08 11:03 49.82438 -1.04866 38071 ft 445 kts 12°
2026-05-08 11:03 49.88385 -1.02242 38066 ft 444 kts 12°
2026-05-08 11:04 49.94379 -1.00424 37698 ft 434 kts
2026-05-08 11:04 49.97304 -0.99590 37142 ft 431 kts
2026-05-08 11:04 50.00232 -0.98743 36546 ft 426 kts
2026-05-08 11:04 50.03126 -0.97921 35861 ft 420 kts
2026-05-08 11:05 50.06003 -0.97124 35031 ft 420 kts
2026-05-08 11:05 50.08879 -0.96307 34164 ft 420 kts
2026-05-08 11:05 50.11747 -0.95486 33449 ft 416 kts
2026-05-08 11:05 50.14579 -0.94676 32543 ft 414 kts
2026-05-08 11:06 50.17425 -0.93882 31504 ft 415 kts
2026-05-08 11:06 50.20276 -0.93079 30367 ft 418 kts
2026-05-08 11:06 50.23093 -0.92279 29461 ft 415 kts
2026-05-08 11:06 50.25921 -0.91484 28581 ft 411 kts
2026-05-08 11:07 50.28735 -0.90697 27619 ft 410 kts
2026-05-08 11:07 50.31542 -0.89905 26640 ft 410 kts
2026-05-08 11:07 50.34347 -0.89096 25721 ft 410 kts
2026-05-08 11:07 50.37138 -0.88299 24758 ft 408 kts
2026-05-08 11:08 50.39932 -0.87499 23839 ft 408 kts
2026-05-08 11:08 50.42709 -0.86695 23025 ft 404 kts
2026-05-08 11:08 50.45468 -0.85887 22199 ft 402 kts
2026-05-08 11:08 50.48203 -0.85104 21408 ft 397 kts
2026-05-08 11:09 50.50915 -0.84323 20639 ft 394 kts
2026-05-08 11:09 50.53590 -0.83544 19820 ft 390 kts 10°
2026-05-08 11:09 50.56236 -0.82765 19284 ft 384 kts 10°
2026-05-08 11:09 50.58888 -0.81991 19105 ft 389 kts
2026-05-08 11:10 50.61508 -0.81226 19075 ft 387 kts 10°
2026-05-08 11:10 50.64158 -0.80447 19068 ft 388 kts 10°
2026-05-08 11:10 50.66811 -0.79672 19078 ft 388 kts
2026-05-08 11:10 50.69463 -0.78909 19076 ft 387 kts
2026-05-08 11:11 50.72113 -0.78129 19060 ft 388 kts 10°
2026-05-08 11:11 50.74771 -0.77344 19075 ft 388 kts 10°
2026-05-08 11:11 50.77418 -0.76570 19073 ft 387 kts 10°
2026-05-08 11:11 50.80068 -0.75767 19065 ft 388 kts 12°
2026-05-08 11:12 50.82650 -0.74525 19071 ft 389 kts 21°
2026-05-08 11:12 50.85154 -0.72896 19079 ft 389 kts 22°
2026-05-08 11:12 50.87655 -0.71273 19084 ft 389 kts 22°
2026-05-08 11:12 50.90131 -0.69674 19082 ft 389 kts 22°
2026-05-08 11:13 50.92643 -0.68056 19081 ft 389 kts 21°
2026-05-08 11:13 50.95150 -0.66443 19083 ft 389 kts 21°
2026-05-08 11:13 50.97663 -0.64824 19078 ft 389 kts 22°
2026-05-08 11:13 50.98909 -0.64019 19085 ft 390 kts 21°
2026-05-08 11:14 51.01416 -0.62397 19083 ft 388 kts 21°